Weather History for Stanley, ID

Change the Weather History Date:

Monday, February 18, 2013

  Actual Average Record
Temperature  
Mean Temperature 7 °F 19 °F  
Max Temperature 28 °F 34 °F 50 °F (1923)
Min Temperature -14 °F 4 °F -31 °F (2006)
Degree Days  
Heating Degree Days 58 46  
Month to date heating degree days 821 864  
Since 1 July heating degree days 6591 7093  
Cooling Degree Days 0 0  
Month to date cooling degree days 0 0  
Year to date cooling degree days 0 0  
Moisture  
Dew Point -1 °F    
Average Humidity 71    
Maximum Humidity 100    
Minimum Humidity 42    
Precipitation  
Precipitation 0.00 in 0.05 in 2.00 in (1986)
Month to date precipitation 0.29 1.19  
Year to date precipitation 0.90 2.71  
Sea Level Pressure  
Sea Level Pressure 30.10 in    
Wind  
Wind Speed 2 mph (SE)    
Max Wind Speed 14 mph    
Max Gust Speed 18 mph    
T = Trace of Precipitation, MM = Missing Value Source: NWS Daily Summary

Daily Weather History Graph

Daily Weather History Graph

Search for Another Location

Airport:

Trip Planner

Search our weather history database for the weather conditions in past years. The results will help you decide how hot, cold, wet, or windy it might be!

Date:

Astronomy

Feb. 18, 2013 Rise Set
Actual Time 7:34 AM MST 6:13 PM MST
Civil Twilight 7:04 AM MST 6:43 PM MST
Nautical Twilight 6:30 AM MST 7:17 PM MST
Astronomical Twilight 5:57 AM MST 7:50 PM MST
Moon 11:56 AM MST (2/18) 2:23 AM MST (2/18)
Length of Visible Light 11h 38m
Length of Day
10h 39m
First Quarter, 59% of the Moon is Illuminated
Feb 18
First Quarter
Feb 25
Full
Mar 4
Last Quarter
Mar 11
New
Mar 19
First Quarter

Hourly Weather History & Observations

Time (MST) Temp. Windchill Dew Point Humidity Pressure Visibility Wind Dir Wind Speed Gust Speed Precip Events Conditions
12:51 AM -2.0 °F - -5.1 °F 87% 30.15 in - Calm Calm - N/A   Unknown
1:51 AM -7.1 °F - -9.0 °F 91% 30.19 in - Calm Calm - N/A   Unknown
2:51 AM -5.1 °F - -8.0 °F 87% 30.18 in - Calm Calm - N/A   Unknown
3:51 AM -6.0 °F - -9.9 °F 83% 30.17 in - Calm Calm - N/A   Unknown
4:51 AM -9.0 °F - -11.9 °F 87% 30.19 in - Calm Calm - N/A   Unknown
5:51 AM -11.0 °F - -15.0 °F 83% 30.22 in - Calm Calm - N/A   Unknown
6:51 AM -13.0 °F - -17.0 °F 82% 30.25 in - Calm Calm - N/A   Unknown
7:51 AM -11.9 °F - -16.1 °F 82% 30.28 in - Calm Calm - N/A   Unknown
8:51 AM -8.0 °F - -11.0 °F 86% 30.27 in - Calm Calm - N/A   Unknown
9:51 AM -2.0 °F - -2.9 °F 96% 30.26 in - Calm Calm - N/A   Unknown
10:51 AM 1.0 °F - -2.9 °F 83% 30.25 in - Calm Calm - N/A   Unknown
11:51 AM 8.1 °F - 1.0 °F 73% 30.19 in - Calm Calm - N/A   Unknown
12:51 PM 15.1 °F - 3.9 °F 61% 30.13 in - Calm Calm - N/A   Unknown
1:51 PM 19.0 °F - 5.0 °F 54% 30.10 in - Calm Calm - N/A   Unknown
2:51 PM 25.0 °F - 5.0 °F 43% 30.03 in - Calm Calm - N/A   Unknown
3:51 PM 24.1 °F 19.7 °F 5.0 °F 44% 30.01 in - NNW 3.5 mph - N/A   Unknown
4:51 PM 24.1 °F - 6.1 °F 46% 30.01 in - Calm Calm - N/A   Unknown
5:51 PM 24.1 °F - 8.1 °F 51% 30.00 in - Calm Calm - N/A   Unknown
6:51 PM 27.0 °F 21.6 °F 7.0 °F 43% 30.01 in - SSE 4.6 mph - N/A   Unknown
7:51 PM 27.0 °F 17.3 °F 7.0 °F 43% 29.98 in - SE 10.4 mph 17.3 mph N/A   Unknown
8:51 PM 26.1 °F 17.6 °F 6.1 °F 43% 29.94 in - SSE 8.1 mph - N/A   Unknown
9:51 PM 24.1 °F 16.0 °F 6.1 °F 46% 29.91 in - SSE 6.9 mph - N/A   Unknown
10:51 PM 21.9 °F 15.7 °F 6.1 °F 51% 29.88 in - ESE 4.6 mph - N/A   Unknown
11:51 PM 23.0 °F 15.8 °F 7.0 °F 50% 29.82 in - SSE 5.8 mph - N/A   Unknown